contact:dominique.lefevre@mio.osupytheas.fr, maurice.libes@osupytheas.fr, didier.mallarino@osupytheas.fr
Project:EMSO http://www.emso-fr.org/EMSO-France
Depth: 2436.0 m
Title:EMSO Ligure Ouest : Data MII capteur MICROCAT
DateTime_Computer,Latitude,Longitude,Temperature,Conductivity,Pressure,DateTime_Instrument
DateTime_Computer,Latitude,Longitude,degC,S m-1,dbar,DateTime_Instrument
2020-06-19T00:00:34Z,42.805,6.029,13.2968,4.59971,2470.147,2020-6-19T02:01:19Z
2020-06-19T00:03:37Z,42.805,6.029,13.2969,4.59971,2470.124,2020-6-19T02:04:22Z
2020-06-19T00:06:40Z,42.805,6.029,13.2969,4.59969,2470.171,2020-6-19T02:07:25Z
2020-06-19T00:09:44Z,42.805,6.029,13.2965,4.59969,2470.133,2020-6-19T02:10:28Z
2020-06-19T00:12:47Z,42.805,6.029,13.2967,4.59970,2470.11,2020-6-19T02:13:32Z
2020-06-19T00:15:50Z,42.805,6.029,13.2968,4.59969,2470.087,2020-6-19T02:16:35Z
2020-06-19T00:18:53Z,42.805,6.029,13.2967,4.59969,2470.087,2020-6-19T02:19:38Z
2020-06-19T00:21:57Z,42.805,6.029,13.2969,4.59969,2470.11,2020-6-19T02:22:41Z
2020-06-19T00:25:00Z,42.805,6.029,13.2968,4.59970,2470.147,2020-6-19T02:25:44Z
2020-06-19T00:28:03Z,42.805,6.029,13.2968,4.59969,2470.133,2020-6-19T02:28:48Z
2020-06-19T00:31:06Z,42.805,6.029,13.2967,4.59970,2470.11,2020-6-19T02:31:51Z
2020-06-19T00:34:09Z,42.805,6.029,13.2970,4.59971,2470.147,2020-6-19T02:34:54Z
2020-06-19T00:37:13Z,42.805,6.029,13.2971,4.59970,2470.124,2020-6-19T02:37:57Z
2020-06-19T00:40:16Z,42.805,6.029,13.2968,4.59969,2470.133,2020-6-19T02:41:01Z
2020-06-19T00:43:19Z,42.805,6.029,13.2967,4.59971,2470.11,2020-6-19T02:44:04Z
2020-06-19T00:46:22Z,42.805,6.029,13.2967,4.59970,2470.133,2020-6-19T02:47:07Z
2020-06-19T00:49:26Z,42.805,6.029,13.2966,4.59968,2470.124,2020-6-19T02:50:10Z
2020-06-19T00:52:29Z,42.805,6.029,13.2966,4.59969,2470.087,2020-6-19T02:53:14Z
2020-06-19T00:55:32Z,42.805,6.029,13.2964,4.59970,2470.124,2020-6-19T02:56:17Z
2020-06-19T00:58:35Z,42.805,6.029,13.2968,4.59968,2470.11,2020-6-19T02:59:20Z
2020-06-19T01:01:39Z,42.805,6.029,13.2971,4.59970,2470.087,2020-6-19T03:02:23Z
2020-06-19T01:04:42Z,42.805,6.029,13.2969,4.59971,2470.11,2020-6-19T03:05:27Z
2020-06-19T01:07:45Z,42.805,6.029,13.2966,4.59969,2470.11,2020-6-19T03:08:30Z
2020-06-19T01:10:48Z,42.805,6.029,13.2969,4.59971,2470.1,2020-6-19T03:11:33Z
2020-06-19T01:13:52Z,42.805,6.029,13.2968,4.59970,2470.077,2020-6-19T03:14:36Z
2020-06-19T01:16:55Z,42.805,6.029,13.2973,4.59970,2470.1,2020-6-19T03:17:39Z
2020-06-19T01:19:58Z,42.805,6.029,13.2965,4.59970,2470.11,2020-6-19T03:20:43Z
2020-06-19T01:23:01Z,42.805,6.029,13.2964,4.59969,2470.11,2020-6-19T03:23:46Z
2020-06-19T01:26:04Z,42.805,6.029,13.2970,4.59973,2470.124,2020-6-19T03:26:49Z
2020-06-19T01:29:08Z,42.805,6.029,13.2968,4.59971,2470.147,2020-6-19T03:29:52Z
2020-06-19T01:32:11Z,42.805,6.029,13.2966,4.59969,2470.124,2020-6-19T03:32:56Z
2020-06-19T01:35:14Z,42.805,6.029,13.2964,4.59970,2470.147,2020-6-19T03:35:59Z
2020-06-19T01:38:17Z,42.805,6.029,13.2967,4.59968,2470.171,2020-6-19T03:39:02Z
2020-06-19T01:41:21Z,42.805,6.029,13.2969,4.59968,2470.063,2020-6-19T03:42:05Z
2020-06-19T01:44:24Z,42.805,6.029,13.2966,4.59969,2470.124,2020-6-19T03:45:09Z
2020-06-19T01:47:27Z,42.805,6.029,13.2966,4.59969,2470.147,2020-6-19T03:48:12Z
2020-06-19T01:50:30Z,42.805,6.029,13.2968,4.59971,2470.1,2020-6-19T03:51:15Z
2020-06-19T01:53:34Z,42.805,6.029,13.2967,4.59971,2470.11,2020-6-19T03:54:18Z
2020-06-19T01:56:37Z,42.805,6.029,13.2970,4.59968,2470.11,2020-6-19T03:57:22Z
2020-06-19T01:59:40Z,42.805,6.029,13.2967,4.59971,2470.133,2020-6-19T04:00:25Z
2020-06-19T02:02:43Z,42.805,6.029,13.2967,4.59970,2470.133,2020-6-19T04:03:28Z
2020-06-19T02:05:46Z,42.805,6.029,13.2967,4.59969,2470.133,2020-6-19T04:06:31Z
2020-06-19T02:08:50Z,42.805,6.029,13.2971,4.59969,2470.133,2020-6-19T04:09:34Z
2020-06-19T02:11:53Z,42.805,6.029,13.2968,4.59970,2470.11,2020-6-19T04:12:38Z
2020-06-19T02:14:56Z,42.805,6.029,13.2968,4.59970,2470.124,2020-6-19T04:15:41Z
2020-06-19T02:18:00Z,42.805,6.029,13.2967,4.59969,2470.133,2020-6-19T04:18:44Z
2020-06-19T02:21:03Z,42.805,6.029,13.2969,4.59968,2470.11,2020-6-19T04:21:48Z
2020-06-19T02:24:06Z,42.805,6.029,13.2967,4.59968,2470.124,2020-6-19T04:24:51Z
2020-06-19T02:27:09Z,42.805,6.029,13.2968,4.59973,2470.124,2020-6-19T04:27:54Z
2020-06-19T02:30:13Z,42.805,6.029,13.2969,4.59970,2470.133,2020-6-19T04:30:57Z
2020-06-19T02:33:16Z,42.805,6.029,13.2968,4.59968,2470.133,2020-6-19T04:34:00Z
2020-06-19T02:36:19Z,42.805,6.029,13.2971,4.59969,2470.133,2020-6-19T04:37:04Z
2020-06-19T02:39:22Z,42.805,6.029,13.2966,4.59969,2470.147,2020-6-19T04:40:07Z
2020-06-19T02:42:26Z,42.805,6.029,13.2967,4.59968,2470.156,2020-6-19T04:43:10Z
2020-06-19T02:45:29Z,42.805,6.029,13.2965,4.59976,2470.171,2020-6-19T04:46:14Z
2020-06-19T02:48:32Z,42.805,6.029,13.2967,4.59970,2470.147,2020-6-19T04:49:17Z
2020-06-19T02:51:35Z,42.805,6.029,13.2967,4.59969,2470.133,2020-6-19T04:52:20Z
2020-06-19T02:54:39Z,42.805,6.029,13.2968,4.59970,2470.171,2020-6-19T04:55:23Z
2020-06-19T02:57:42Z,42.805,6.029,13.2968,4.59971,2470.133,2020-6-19T04:58:27Z
2020-06-19T03:00:45Z,42.805,6.029,13.2966,4.59972,2470.143,2020-6-19T05:01:30Z
2020-06-19T03:03:49Z,42.805,6.029,13.2974,4.59972,2470.156,2020-6-19T05:04:33Z
2020-06-19T03:06:52Z,42.805,6.029,13.2965,4.59970,2470.133,2020-6-19T05:07:36Z
2020-06-19T03:09:55Z,42.805,6.029,13.2971,4.59969,2470.156,2020-6-19T05:10:40Z
2020-06-19T03:12:58Z,42.805,6.029,13.2968,4.59971,2470.156,2020-6-19T05:13:43Z
2020-06-19T03:16:02Z,42.805,6.029,13.2968,4.59971,2470.203,2020-6-19T05:16:46Z
2020-06-19T03:19:05Z,42.805,6.029,13.2968,4.59970,2470.156,2020-6-19T05:19:49Z
2020-06-19T03:22:08Z,42.805,6.029,13.2967,4.59971,2470.147,2020-6-19T05:22:53Z
2020-06-19T03:25:11Z,42.805,6.029,13.2969,4.59971,2470.18,2020-6-19T05:25:56Z
2020-06-19T03:28:15Z,42.805,6.029,13.2970,4.59969,2470.156,2020-6-19T05:28:59Z
2020-06-19T03:31:18Z,42.805,6.029,13.2968,4.59969,2470.156,2020-6-19T05:32:03Z
2020-06-19T03:34:21Z,42.805,6.029,13.2967,4.59971,2470.194,2020-6-19T05:35:06Z
2020-06-19T03:37:24Z,42.805,6.029,13.2968,4.59969,2470.156,2020-6-19T05:38:09Z
2020-06-19T03:40:28Z,42.805,6.029,13.2966,4.59970,2470.217,2020-6-19T05:41:12Z
2020-06-19T03:43:31Z,42.805,6.029,13.2968,4.59971,2470.156,2020-6-19T05:44:15Z
2020-06-19T03:46:34Z,42.805,6.029,13.2964,4.59971,2470.171,2020-6-19T05:47:19Z
2020-06-19T03:49:37Z,42.805,6.029,13.2967,4.59970,2470.18,2020-6-19T05:50:22Z
2020-06-19T03:52:41Z,42.805,6.029,13.2971,4.59970,2470.203,2020-6-19T05:53:25Z
2020-06-19T03:55:44Z,42.805,6.029,13.2961,4.59970,2470.156,2020-6-19T05:56:28Z
2020-06-19T03:58:47Z,42.805,6.029,13.2967,4.59970,2470.18,2020-6-19T05:59:32Z
2020-06-19T04:01:50Z,42.805,6.029,13.2968,4.59971,2470.156,2020-6-19T06:02:35Z
2020-06-19T04:04:54Z,42.805,6.029,13.2964,4.59971,2470.217,2020-6-19T06:05:38Z
2020-06-19T04:07:57Z,42.805,6.029,13.2966,4.59971,2470.217,2020-6-19T06:08:41Z
2020-06-19T04:11:00Z,42.805,6.029,13.2967,4.59971,2470.18,2020-6-19T06:11:45Z
2020-06-19T04:14:03Z,42.805,6.029,13.2968,4.59970,2470.217,2020-6-19T06:14:48Z
2020-06-19T04:17:07Z,42.805,6.029,13.2967,4.59971,2470.217,2020-6-19T06:17:51Z
2020-06-19T04:20:10Z,42.805,6.029,13.2968,4.59971,2470.217,2020-6-19T06:20:54Z
2020-06-19T04:23:13Z,42.805,6.029,13.2967,4.59971,2470.24,2020-6-19T06:23:58Z
2020-06-19T04:26:16Z,42.805,6.029,13.2964,4.59970,2470.217,2020-6-19T06:27:01Z
2020-06-19T04:29:19Z,42.805,6.029,13.2970,4.59973,2470.203,2020-6-19T06:30:04Z
2020-06-19T04:32:23Z,42.805,6.029,13.2968,4.59972,2470.217,2020-6-19T06:33:07Z
2020-06-19T04:35:26Z,42.805,6.029,13.2969,4.59971,2470.227,2020-6-19T06:36:11Z
2020-06-19T04:38:29Z,42.805,6.029,13.2970,4.59972,2470.203,2020-6-19T06:39:14Z
2020-06-19T04:41:32Z,42.805,6.029,13.2966,4.59971,2470.203,2020-6-19T06:42:17Z
2020-06-19T04:44:36Z,42.805,6.029,13.2965,4.59971,2470.227,2020-6-19T06:45:20Z
2020-06-19T04:47:39Z,42.805,6.029,13.2967,4.59973,2470.203,2020-6-19T06:48:24Z
2020-06-19T04:50:42Z,42.805,6.029,13.2965,4.59971,2470.217,2020-6-19T06:51:27Z
2020-06-19T04:53:45Z,42.805,6.029,13.2968,4.59971,2470.227,2020-6-19T06:54:30Z
2020-06-19T04:56:49Z,42.805,6.029,13.2969,4.59971,2470.217,2020-6-19T06:57:33Z
2020-06-19T04:59:52Z,42.805,6.029,13.2967,4.59971,2470.203,2020-6-19T07:00:37Z
2020-06-19T05:02:55Z,42.805,6.029,13.2971,4.59971,2470.24,2020-6-19T07:03:40Z
2020-06-19T05:05:58Z,42.805,6.029,13.2965,4.59972,2470.203,2020-6-19T07:06:43Z
2020-06-19T05:09:02Z,42.805,6.029,13.2967,4.59971,2470.203,2020-6-19T07:09:46Z
2020-06-19T05:12:05Z,42.805,6.029,13.2964,4.59971,2470.217,2020-6-19T07:12:49Z
2020-06-19T05:15:08Z,42.805,6.029,13.2968,4.59972,2470.203,2020-6-19T07:15:53Z
2020-06-19T05:18:11Z,42.805,6.029,13.2968,4.59970,2470.24,2020-6-19T07:18:56Z
2020-06-19T05:21:14Z,42.805,6.029,13.2970,4.59972,2470.227,2020-6-19T07:21:59Z
2020-06-19T05:24:18Z,42.805,6.029,13.2967,4.59972,2470.24,2020-6-19T07:25:02Z
2020-06-19T05:27:21Z,42.805,6.029,13.2968,4.59971,2470.227,2020-6-19T07:28:06Z
2020-06-19T05:30:24Z,42.805,6.029,13.2965,4.59971,2470.217,2020-6-19T07:31:09Z
2020-06-19T05:33:28Z,42.805,6.029,13.2965,4.59971,2470.227,2020-6-19T07:34:12Z
2020-06-19T05:36:31Z,42.805,6.029,13.2968,4.59971,2470.25,2020-6-19T07:37:16Z
2020-06-19T05:39:34Z,42.805,6.029,13.2965,4.59970,2470.217,2020-6-19T07:40:19Z
2020-06-19T05:42:37Z,42.805,6.029,13.2967,4.59973,2470.203,2020-6-19T07:43:22Z
2020-06-19T05:45:41Z,42.805,6.029,13.2965,4.59972,2470.24,2020-6-19T07:46:25Z
2020-06-19T05:48:44Z,42.805,6.029,13.2967,4.59969,2470.227,2020-6-19T07:49:29Z
2020-06-19T05:51:47Z,42.805,6.029,13.2966,4.59971,2470.24,2020-6-19T07:52:32Z
2020-06-19T05:54:50Z,42.805,6.029,13.2968,4.59973,2470.273,2020-6-19T07:55:35Z
2020-06-19T05:57:54Z,42.805,6.029,13.2969,4.59972,2470.203,2020-6-19T07:58:38Z
2020-06-19T06:00:57Z,42.805,6.029,13.2967,4.59971,2470.227,2020-6-19T08:01:42Z
2020-06-19T06:04:00Z,42.805,6.029,13.2967,4.59972,2470.227,2020-6-19T08:04:45Z
2020-06-19T06:07:03Z,42.805,6.029,13.2968,4.59972,2470.24,2020-6-19T08:07:48Z
2020-06-19T06:10:07Z,42.805,6.029,13.2968,4.59972,2470.227,2020-6-19T08:10:51Z
2020-06-19T06:13:10Z,42.805,6.029,13.2967,4.59972,2470.227,2020-6-19T08:13:54Z
2020-06-19T06:16:13Z,42.805,6.029,13.2969,4.59970,2470.227,2020-6-19T08:16:58Z
2020-06-19T06:19:16Z,42.805,6.029,13.2966,4.59970,2470.25,2020-6-19T08:20:01Z
2020-06-19T06:22:20Z,42.805,6.029,13.2968,4.59973,2470.24,2020-6-19T08:23:04Z
2020-06-19T06:25:23Z,42.805,6.029,13.2968,4.59971,2470.227,2020-6-19T08:26:08Z
2020-06-19T06:28:26Z,42.805,6.029,13.2968,4.59971,2470.24,2020-6-19T08:29:11Z
2020-06-19T06:31:29Z,42.805,6.029,13.2970,4.59972,2470.203,2020-6-19T08:32:14Z
2020-06-19T06:34:33Z,42.805,6.029,13.2968,4.59971,2470.227,2020-6-19T08:35:17Z
2020-06-19T06:37:36Z,42.805,6.029,13.2964,4.59972,2470.194,2020-6-19T08:38:20Z
2020-06-19T06:40:39Z,42.805,6.029,13.2969,4.59970,2470.227,2020-6-19T08:41:24Z
2020-06-19T06:43:42Z,42.805,6.029,13.2969,4.59971,2470.203,2020-6-19T08:44:27Z
2020-06-19T06:46:46Z,42.805,6.029,13.2967,4.59971,2470.18,2020-6-19T08:47:30Z
2020-06-19T06:49:49Z,42.805,6.029,13.2968,4.59971,2470.227,2020-6-19T08:50:34Z
2020-06-19T06:52:52Z,42.805,6.029,13.2968,4.59971,2470.227,2020-6-19T08:53:37Z
2020-06-19T06:55:55Z,42.805,6.029,13.2968,4.59972,2470.203,2020-6-19T08:56:40Z
2020-06-19T06:58:59Z,42.805,6.029,13.2965,4.59971,2470.24,2020-6-19T08:59:43Z
2020-06-19T07:02:02Z,42.805,6.029,13.2967,4.59972,2470.217,2020-6-19T09:02:46Z
2020-06-19T07:05:05Z,42.805,6.029,13.2969,4.59972,2470.203,2020-6-19T09:05:50Z
2020-06-19T07:08:08Z,42.805,6.029,13.2968,4.59971,2470.217,2020-6-19T09:08:53Z
2020-06-19T07:11:12Z,42.805,6.029,13.2968,4.59971,2470.213,2020-6-19T09:11:56Z
2020-06-19T07:14:15Z,42.805,6.029,13.2971,4.59971,2470.203,2020-6-19T09:14:59Z
2020-06-19T07:17:18Z,42.805,6.029,13.2969,4.59972,2470.18,2020-6-19T09:18:03Z
2020-06-19T07:20:21Z,42.805,6.029,13.2968,4.59970,2470.217,2020-6-19T09:21:06Z
2020-06-19T07:23:25Z,42.805,6.029,13.2967,4.59971,2470.18,2020-6-19T09:24:09Z
2020-06-19T07:26:28Z,42.805,6.029,13.2967,4.59971,2470.203,2020-6-19T09:27:13Z
2020-06-19T07:29:31Z,42.805,6.029,13.2967,4.59971,2470.18,2020-6-19T09:30:16Z
2020-06-19T07:32:34Z,42.805,6.029,13.2967,4.59972,2470.171,2020-6-19T09:33:19Z
2020-06-19T07:35:38Z,42.805,6.029,13.2971,4.59971,2470.18,2020-6-19T09:36:22Z
2020-06-19T07:38:41Z,42.805,6.029,13.2967,4.59972,2470.194,2020-6-19T09:39:26Z
2020-06-19T07:41:44Z,42.805,6.029,13.2967,4.59971,2470.156,2020-6-19T09:42:29Z
2020-06-19T07:44:47Z,42.805,6.029,13.2968,4.59972,2470.18,2020-6-19T09:45:32Z
2020-06-19T07:47:51Z,42.805,6.029,13.2967,4.59971,2470.156,2020-6-19T09:48:35Z
2020-06-19T07:50:54Z,42.805,6.029,13.2968,4.59971,2470.203,2020-6-19T09:51:38Z
2020-06-19T07:53:57Z,42.805,6.029,13.2971,4.59971,2470.171,2020-6-19T09:54:42Z
2020-06-19T07:57:00Z,42.805,6.029,13.2967,4.59972,2470.171,2020-6-19T09:57:45Z
2020-06-19T08:00:04Z,42.805,6.029,13.2971,4.59973,2470.171,2020-6-19T10:00:48Z
2020-06-19T08:03:07Z,42.805,6.029,13.2972,4.59972,2470.156,2020-6-19T10:03:52Z
2020-06-19T08:06:10Z,42.805,6.029,13.2971,4.59973,2470.156,2020-6-19T10:06:55Z
2020-06-19T08:09:13Z,42.805,6.029,13.2971,4.59972,2470.143,2020-6-19T10:09:58Z
2020-06-19T08:12:17Z,42.805,6.029,13.2968,4.59972,2470.156,2020-6-19T10:13:01Z
2020-06-19T08:15:20Z,42.805,6.029,13.2968,4.59971,2470.156,2020-6-19T10:16:04Z
2020-06-19T08:18:23Z,42.805,6.029,13.2968,4.59971,2470.156,2020-6-19T10:19:08Z
2020-06-19T08:21:26Z,42.805,6.029,13.2971,4.59972,2470.124,2020-6-19T10:22:11Z
2020-06-19T08:24:30Z,42.805,6.029,13.2969,4.59970,2470.133,2020-6-19T10:25:14Z
2020-06-19T08:27:33Z,42.805,6.029,13.2966,4.59973,2470.171,2020-6-19T10:28:18Z
2020-06-19T08:30:36Z,42.805,6.029,13.2968,4.59971,2470.156,2020-6-19T10:31:21Z
2020-06-19T08:33:39Z,42.805,6.029,13.2971,4.59969,2470.133,2020-6-19T10:34:24Z
2020-06-19T08:36:43Z,42.805,6.029,13.2968,4.59972,2470.133,2020-6-19T10:37:27Z
2020-06-19T08:39:46Z,42.805,6.029,13.2971,4.59971,2470.147,2020-6-19T10:40:31Z
2020-06-19T08:42:49Z,42.805,6.029,13.2967,4.59970,2470.171,2020-6-19T10:43:34Z
2020-06-19T08:45:53Z,42.805,6.029,13.2968,4.59973,2470.124,2020-6-19T10:46:37Z
2020-06-19T08:48:56Z,42.805,6.029,13.2968,4.59973,2470.147,2020-6-19T10:49:41Z
2020-06-19T08:51:59Z,42.805,6.029,13.2971,4.59971,2470.11,2020-6-19T10:52:44Z
2020-06-19T08:55:02Z,42.805,6.029,13.2968,4.59971,2470.171,2020-6-19T10:55:47Z
2020-06-19T08:58:06Z,42.805,6.029,13.2971,4.59972,2470.124,2020-6-19T10:58:50Z
2020-06-19T09:01:09Z,42.805,6.029,13.2968,4.59971,2470.11,2020-6-19T11:01:54Z
2020-06-19T09:04:12Z,42.805,6.029,13.2971,4.59972,2470.1,2020-6-19T11:04:57Z
2020-06-19T09:07:15Z,42.805,6.029,13.2967,4.59971,2470.147,2020-6-19T11:08:00Z
2020-06-19T09:10:19Z,42.805,6.029,13.2968,4.59972,2470.087,2020-6-19T11:11:03Z
2020-06-19T09:13:22Z,42.805,6.029,13.2970,4.59971,2470.124,2020-6-19T11:14:07Z
2020-06-19T09:16:25Z,42.805,6.029,13.2967,4.59970,2470.124,2020-6-19T11:17:10Z
2020-06-19T09:19:28Z,42.805,6.029,13.2968,4.59972,2470.133,2020-6-19T11:20:13Z
2020-06-19T09:22:32Z,42.805,6.029,13.2969,4.59972,2470.11,2020-6-19T11:23:16Z
2020-06-19T09:25:35Z,42.805,6.029,13.2968,4.59971,2470.11,2020-6-19T11:26:20Z
2020-06-19T09:28:38Z,42.805,6.029,13.2969,4.59973,2470.11,2020-6-19T11:29:23Z
2020-06-19T09:31:42Z,42.805,6.029,13.2969,4.59971,2470.11,2020-6-19T11:32:26Z
2020-06-19T09:34:45Z,42.805,6.029,13.2969,4.59971,2470.087,2020-6-19T11:35:29Z
2020-06-19T09:37:48Z,42.805,6.029,13.2968,4.59973,2470.133,2020-6-19T11:38:33Z
2020-06-19T09:40:51Z,42.805,6.029,13.2971,4.59971,2470.133,2020-6-19T11:41:36Z
2020-06-19T09:43:54Z,42.805,6.029,13.2968,4.59970,2470.087,2020-6-19T11:44:39Z
2020-06-19T09:46:58Z,42.805,6.029,13.2969,4.59971,2470.087,2020-6-19T11:47:42Z
2020-06-19T09:50:01Z,42.805,6.029,13.2967,4.59970,2470.1,2020-6-19T11:50:46Z
2020-06-19T09:53:04Z,42.805,6.029,13.2968,4.59972,2470.11,2020-6-19T11:53:49Z
2020-06-19T09:56:08Z,42.805,6.029,13.2968,4.59971,2470.087,2020-6-19T11:56:52Z
2020-06-19T09:59:11Z,42.805,6.029,13.2970,4.59971,2470.1,2020-6-19T11:59:56Z
2020-06-19T10:02:14Z,42.805,6.029,13.2969,4.59971,2470.11,2020-6-19T12:02:59Z
2020-06-19T10:05:17Z,42.805,6.029,13.2971,4.59971,2470.063,2020-6-19T12:06:02Z
2020-06-19T10:08:21Z,42.805,6.029,13.2968,4.59971,2470.087,2020-6-19T12:09:05Z
2020-06-19T10:11:24Z,42.805,6.029,13.2970,4.59970,2470.087,2020-6-19T12:12:08Z
2020-06-19T10:14:27Z,42.805,6.029,13.2971,4.59971,2470.087,2020-6-19T12:15:12Z
2020-06-19T10:17:31Z,42.805,6.029,13.2970,4.59970,2470.087,2020-6-19T12:18:15Z
2020-06-19T10:20:34Z,42.805,6.029,13.2970,4.59971,2470.1,2020-6-19T12:21:18Z
2020-06-19T10:23:37Z,42.805,6.029,13.2968,4.59972,2470.063,2020-6-19T12:24:22Z
2020-06-19T10:26:40Z,42.805,6.029,13.2965,4.59970,2470.11,2020-6-19T12:27:25Z
2020-06-19T10:29:44Z,42.805,6.029,13.2964,4.59968,2470.087,2020-6-19T12:30:28Z
2020-06-19T10:32:47Z,42.805,6.029,13.2966,4.59970,2470.077,2020-6-19T12:33:32Z
2020-06-19T10:35:50Z,42.805,6.029,13.2970,4.59971,2470.063,2020-6-19T12:36:35Z
2020-06-19T10:38:53Z,42.805,6.029,13.2969,4.59971,2470.1,2020-6-19T12:39:38Z
2020-06-19T10:41:57Z,42.805,6.029,13.2968,4.59972,2470.063,2020-6-19T12:42:41Z
2020-06-19T10:45:00Z,42.805,6.029,13.2972,4.59971,2470.087,2020-6-19T12:45:45Z
2020-06-19T10:48:03Z,42.805,6.029,13.2971,4.59971,2470.087,2020-6-19T12:48:48Z
2020-06-19T10:51:07Z,42.805,6.029,13.2968,4.59971,2470.077,2020-6-19T12:51:51Z
2020-06-19T10:54:10Z,42.805,6.029,13.2966,4.59971,2470.087,2020-6-19T12:54:54Z
2020-06-19T10:57:13Z,42.805,6.029,13.2967,4.59971,2470.063,2020-6-19T12:57:58Z
2020-06-19T11:00:16Z,42.805,6.029,13.2969,4.59970,2470.077,2020-6-19T13:01:01Z
2020-06-19T11:03:19Z,42.805,6.029,13.2970,4.59970,2470.063,2020-6-19T13:04:04Z
2020-06-19T11:06:23Z,42.805,6.029,13.2964,4.59971,2470.087,2020-6-19T13:07:07Z
2020-06-19T11:09:26Z,42.805,6.029,13.2968,4.59970,2470.077,2020-6-19T13:10:11Z
2020-06-19T11:12:29Z,42.805,6.029,13.2967,4.59971,2470.04,2020-6-19T13:13:14Z
2020-06-19T11:15:32Z,42.805,6.029,13.2968,4.59970,2470.017,2020-6-19T13:16:17Z
2020-06-19T11:18:36Z,42.805,6.029,13.2967,4.59970,2470.063,2020-6-19T13:19:20Z
2020-06-19T11:21:39Z,42.805,6.029,13.2970,4.59971,2470.026,2020-6-19T13:22:24Z
2020-06-19T11:24:42Z,42.805,6.029,13.2968,4.59971,2470.03,2020-6-19T13:25:27Z
2020-06-19T11:27:45Z,42.805,6.029,13.2968,4.59971,2470.087,2020-6-19T13:28:30Z
2020-06-19T11:30:49Z,42.805,6.029,13.2968,4.59971,2470.077,2020-6-19T13:31:33Z
2020-06-19T11:33:52Z,42.805,6.029,13.2968,4.59972,2470.017,2020-6-19T13:34:37Z
2020-06-19T11:36:55Z,42.805,6.029,13.2967,4.59970,2470.063,2020-6-19T13:37:40Z
2020-06-19T11:39:58Z,42.805,6.029,13.2974,4.59973,2470.04,2020-6-19T13:40:43Z
2020-06-19T11:43:02Z,42.805,6.029,13.2969,4.59973,2470.03,2020-6-19T13:43:46Z
2020-06-19T11:46:05Z,42.805,6.029,13.2968,4.59972,2470.053,2020-6-19T13:46:50Z
2020-06-19T11:49:08Z,42.805,6.029,13.2968,4.59973,2470.04,2020-6-19T13:49:53Z
2020-06-19T11:52:11Z,42.805,6.029,13.2971,4.59971,2470.04,2020-6-19T13:52:56Z
2020-06-19T11:55:15Z,42.805,6.029,13.2971,4.59970,2470.017,2020-6-19T13:55:59Z
2020-06-19T11:58:18Z,42.805,6.029,13.2970,4.59971,2470.063,2020-6-19T13:59:03Z
2020-06-19T12:01:21Z,42.805,6.029,13.2969,4.59970,2470.04,2020-6-19T14:02:06Z
2020-06-19T12:04:24Z,42.805,6.029,13.2968,4.59971,2470.04,2020-6-19T14:05:09Z
2020-06-19T12:07:28Z,42.805,6.029,13.2967,4.59971,2470.017,2020-6-19T14:08:12Z
2020-06-19T12:10:31Z,42.805,6.029,13.2968,4.59970,2470.04,2020-6-19T14:11:15Z
2020-06-19T12:13:34Z,42.805,6.029,13.2973,4.59971,2470.04,2020-6-19T14:14:19Z
2020-06-19T12:16:37Z,42.805,6.029,13.2970,4.59971,2470.007,2020-6-19T14:17:22Z
2020-06-19T12:19:40Z,42.805,6.029,13.2971,4.59971,2470.017,2020-6-19T14:20:25Z
2020-06-19T12:22:44Z,42.805,6.029,13.2973,4.59971,2470.053,2020-6-19T14:23:29Z
2020-06-19T12:25:47Z,42.805,6.029,13.2970,4.59971,2470.04,2020-6-19T14:26:32Z
2020-06-19T12:28:51Z,42.805,6.029,13.2971,4.59971,2470.077,2020-6-19T14:29:35Z
2020-06-19T12:31:54Z,42.805,6.029,13.2969,4.59973,2470.053,2020-6-19T14:32:39Z
2020-06-19T12:34:57Z,42.805,6.029,13.2973,4.59972,2470.04,2020-6-19T14:35:42Z
2020-06-19T12:38:00Z,42.805,6.029,13.2968,4.59971,2470.053,2020-6-19T14:38:45Z
2020-06-19T12:41:04Z,42.805,6.029,13.2971,4.59972,2470.04,2020-6-19T14:41:48Z
2020-06-19T12:44:07Z,42.805,6.029,13.2971,4.59971,2470.063,2020-6-19T14:44:52Z
2020-06-19T12:47:10Z,42.805,6.029,13.2970,4.59971,2470.04,2020-6-19T14:47:55Z
2020-06-19T12:50:13Z,42.805,6.029,13.2971,4.59971,2470.077,2020-6-19T14:50:58Z
2020-06-19T12:53:17Z,42.805,6.029,13.2971,4.59971,2470.053,2020-6-19T14:54:01Z
2020-06-19T12:56:20Z,42.805,6.029,13.2966,4.59971,2470.04,2020-6-19T14:57:05Z
2020-06-19T12:59:23Z,42.805,6.029,13.2971,4.59971,2470.04,2020-6-19T15:00:08Z
2020-06-19T13:02:26Z,42.805,6.029,13.2971,4.59971,2470.017,2020-6-19T15:03:11Z
2020-06-19T13:05:29Z,42.805,6.029,13.2970,4.59973,2470.04,2020-6-19T15:06:14Z
2020-06-19T13:08:33Z,42.805,6.029,13.2968,4.59973,2470.04,2020-6-19T15:09:17Z
2020-06-19T13:11:36Z,42.805,6.029,13.2968,4.59972,2470.04,2020-6-19T15:12:21Z
2020-06-19T13:14:39Z,42.805,6.029,13.2972,4.59973,2470.04,2020-6-19T15:15:24Z
2020-06-19T13:17:42Z,42.805,6.029,13.2968,4.59971,2470.04,2020-6-19T15:18:27Z
2020-06-19T13:20:46Z,42.805,6.029,13.2968,4.59972,2470.017,2020-6-19T15:21:30Z
2020-06-19T13:23:49Z,42.805,6.029,13.2973,4.59972,2470.063,2020-6-19T15:24:34Z
2020-06-19T13:26:52Z,42.805,6.029,13.2968,4.59974,2470.063,2020-6-19T15:27:37Z
2020-06-19T13:29:56Z,42.805,6.029,13.2968,4.59973,2470.1,2020-6-19T15:30:40Z
2020-06-19T13:32:59Z,42.805,6.029,13.2973,4.59973,2470.063,2020-6-19T15:33:43Z
2020-06-19T13:36:02Z,42.805,6.029,13.2968,4.59973,2470.063,2020-6-19T15:36:47Z
2020-06-19T13:39:05Z,42.805,6.029,13.2967,4.59973,2470.087,2020-6-19T15:39:50Z
2020-06-19T13:42:09Z,42.805,6.029,13.2971,4.59972,2470.063,2020-6-19T15:42:53Z
2020-06-19T13:45:12Z,42.805,6.029,13.2970,4.59973,2470.053,2020-6-19T15:45:57Z
2020-06-19T13:48:15Z,42.805,6.029,13.2967,4.59971,2470.077,2020-6-19T15:49:00Z
2020-06-19T13:51:18Z,42.805,6.029,13.2969,4.59972,2470.077,2020-6-19T15:52:03Z
2020-06-19T13:54:22Z,42.805,6.029,13.2968,4.59971,2470.077,2020-6-19T15:55:06Z
2020-06-19T13:57:25Z,42.805,6.029,13.2969,4.59971,2470.063,2020-6-19T15:58:10Z
2020-06-19T14:00:28Z,42.805,6.029,13.2968,4.59971,2470.087,2020-6-19T16:01:13Z
2020-06-19T14:03:32Z,42.805,6.029,13.2969,4.59971,2470.087,2020-6-19T16:04:16Z
2020-06-19T14:06:35Z,42.805,6.029,13.2970,4.59972,2470.063,2020-6-19T16:07:19Z
2020-06-19T14:09:38Z,42.805,6.029,13.2969,4.59971,2470.063,2020-6-19T16:10:23Z
2020-06-19T14:12:41Z,42.805,6.029,13.2967,4.59971,2470.063,2020-6-19T16:13:26Z
2020-06-19T14:15:45Z,42.805,6.029,13.2967,4.59971,2470.063,2020-6-19T16:16:29Z
2020-06-19T14:18:48Z,42.805,6.029,13.2968,4.59973,2470.087,2020-6-19T16:19:33Z
2020-06-19T14:21:51Z,42.805,6.029,13.2968,4.59971,2470.087,2020-6-19T16:22:36Z
2020-06-19T14:24:54Z,42.805,6.029,13.2968,4.59971,2470.063,2020-6-19T16:25:39Z
2020-06-19T14:27:58Z,42.805,6.029,13.2969,4.59971,2470.063,2020-6-19T16:28:42Z
2020-06-19T14:31:01Z,42.805,6.029,13.2968,4.59971,2470.147,2020-6-19T16:31:46Z
2020-06-19T14:34:04Z,42.805,6.029,13.2970,4.59971,2470.1,2020-6-19T16:34:49Z
2020-06-19T14:37:08Z,42.805,6.029,13.2971,4.59971,2470.11,2020-6-19T16:37:52Z
2020-06-19T14:40:11Z,42.805,6.029,13.2970,4.59969,2470.11,2020-6-19T16:40:55Z
2020-06-19T14:43:14Z,42.805,6.029,13.2972,4.59969,2470.087,2020-6-19T16:43:59Z
2020-06-19T14:46:17Z,42.805,6.029,13.2964,4.59973,2470.11,2020-6-19T16:47:02Z
2020-06-19T14:49:21Z,42.805,6.029,13.2969,4.59971,2470.049,2020-6-19T16:50:05Z
2020-06-19T14:52:24Z,42.805,6.029,13.2966,4.59970,2470.11,2020-6-19T16:53:08Z
2020-06-19T14:55:27Z,42.805,6.029,13.2968,4.59970,2470.124,2020-6-19T16:56:12Z
2020-06-19T14:58:30Z,42.805,6.029,13.2969,4.59971,2470.11,2020-6-19T16:59:15Z
2020-06-19T15:01:34Z,42.805,6.029,13.2972,4.59971,2470.11,2020-6-19T17:02:18Z
2020-06-19T15:04:37Z,42.805,6.029,13.2969,4.59971,2470.133,2020-6-19T17:05:21Z
2020-06-19T15:07:40Z,42.805,6.029,13.2967,4.59971,2470.1,2020-6-19T17:08:25Z
2020-06-19T15:10:43Z,42.805,6.029,13.2968,4.59972,2470.087,2020-6-19T17:11:28Z
2020-06-19T15:13:47Z,42.805,6.029,13.2971,4.59971,2470.11,2020-6-19T17:14:31Z